AAY3472 KFLL-KCHA

Flight info

Callsign AAY3472
Flight time 1h 43m
Altitude 38000
Route HROCK2 KPASA Q118 THRSR
Aircraft A320/M-SDE3FGHIRWY/LB1

Departure

Time 2026-05-03 23:59
Airport Fort Lauderdale Hollywood International Airport (KFLL)

Arrival

Time 2026-05-04 01:43
Airport Chattanooga Metropolitan Airport (Lovell Field) (KCHA)
Time Latitude Longitude Altitude Speed Heading
2026-05-03 22:30 26.07413 -80.14084 16 ft 0 kts 179°
2026-05-03 22:49 26.07421 -80.14084 16 ft 4 kts 179°
2026-05-03 22:50 26.07441 -80.14084 19 ft 4 kts 172°
2026-05-03 22:50 26.07466 -80.14091 19 ft 4 kts 172°
2026-05-03 22:50 26.07483 -80.14088 17 ft 4 kts 253°
2026-05-03 22:50 26.07485 -80.14063 16 ft 2 kts 270°
2026-05-03 22:51 26.07485 -80.14061 16 ft 0 kts 270°
2026-05-03 22:58 26.07485 -80.14092 16 ft 9 kts 270°
2026-05-03 22:58 26.07486 -80.14181 16 ft 14 kts 270°
2026-05-03 22:58 26.07486 -80.14241 16 ft 1 kts 271°
2026-05-03 22:59 26.07486 -80.14246 16 ft 0 kts 271°
2026-05-03 22:59 26.07486 -80.14248 16 ft 3 kts 271°
2026-05-03 22:59 26.07486 -80.14320 16 ft 12 kts 270°
2026-05-03 22:59 26.07487 -80.14397 16 ft 0 kts 270°
2026-05-03 23:00 26.07487 -80.14403 16 ft 4 kts 271°
2026-05-03 23:00 26.07488 -80.14476 16 ft 13 kts 271°
2026-05-03 23:00 26.07488 -80.14572 16 ft 13 kts 270°
2026-05-03 23:00 26.07489 -80.14691 16 ft 16 kts 270°
2026-05-03 23:01 26.07491 -80.14816 16 ft 16 kts 271°
2026-05-03 23:01 26.07488 -80.14941 16 ft 16 kts 270°
2026-05-03 23:01 26.07489 -80.15063 16 ft 16 kts 270°
2026-05-03 23:01 26.07489 -80.15182 16 ft 15 kts 270°
2026-05-03 23:02 26.07490 -80.15318 16 ft 19 kts 270°
2026-05-03 23:02 26.07491 -80.15469 16 ft 20 kts 270°
2026-05-03 23:02 26.07492 -80.15623 16 ft 20 kts 270°
2026-05-03 23:02 26.07493 -80.15780 16 ft 20 kts 270°
2026-05-03 23:03 26.07493 -80.15914 16 ft 13 kts 270°
2026-05-03 23:03 26.07494 -80.15962 16 ft 4 kts 270°
2026-05-03 23:03 26.07494 -80.15968 16 ft 0 kts 270°
2026-05-03 23:03 26.07494 -80.15972 16 ft 3 kts 271°
2026-05-03 23:04 26.07494 -80.16002 16 ft 7 kts 271°
2026-05-03 23:04 26.07494 -80.16014 16 ft 0 kts 270°
2026-05-03 23:07 26.07494 -80.16028 16 ft 1 kts 270°
2026-05-03 23:08 26.07494 -80.16030 16 ft 0 kts 270°
2026-05-03 23:08 26.07494 -80.16031 16 ft 1 kts 270°
2026-05-03 23:08 26.07495 -80.16076 16 ft 6 kts 270°
2026-05-03 23:08 26.07495 -80.16099 16 ft 1 kts 270°
2026-05-03 23:09 26.07495 -80.16100 16 ft 0 kts 270°
2026-05-03 23:09 26.07495 -80.16103 16 ft 1 kts 270°
2026-05-03 23:10 26.07495 -80.16104 16 ft 0 kts 270°
2026-05-03 23:12 26.07495 -80.16111 16 ft 1 kts 270°
2026-05-03 23:12 26.07495 -80.16115 16 ft 0 kts 270°
2026-05-03 23:14 26.07495 -80.16136 16 ft 6 kts 270°
2026-05-03 23:14 26.07495 -80.16207 16 ft 10 kts 270°
2026-05-03 23:14 26.07495 -80.16236 16 ft 2 kts 270°
2026-05-03 23:15 26.07495 -80.16253 16 ft 2 kts 269°
2026-05-03 23:15 26.07495 -80.16257 16 ft 0 kts 270°
2026-05-03 23:15 26.07495 -80.16260 16 ft 2 kts 270°
2026-05-03 23:15 26.07495 -80.16283 16 ft 3 kts 270°
2026-05-03 23:16 26.07496 -80.16298 16 ft 0 kts 270°
2026-05-03 23:17 26.07496 -80.16314 16 ft 3 kts 270°
2026-05-03 23:17 26.07496 -80.16322 16 ft 0 kts 270°
2026-05-03 23:22 26.07496 -80.16329 16 ft 4 kts 271°
2026-05-03 23:22 26.07496 -80.16338 16 ft 0 kts 270°
2026-05-03 23:26 26.07496 -80.16349 16 ft 5 kts 271°
2026-05-03 23:27 26.07496 -80.16388 16 ft 0 kts 270°
2026-05-03 23:31 26.07496 -80.16394 16 ft 4 kts 270°
2026-05-03 23:31 26.07496 -80.16405 16 ft 0 kts 270°
2026-05-03 23:38 26.07496 -80.16407 16 ft 1 kts 270°
2026-05-03 23:39 26.07496 -80.16409 16 ft 0 kts 270°
2026-05-03 23:41 26.07497 -80.16441 16 ft 6 kts 270°
2026-05-03 23:41 26.07497 -80.16481 16 ft 2 kts 270°
2026-05-03 23:44 26.07497 -80.16482 16 ft 1 kts 270°
2026-05-03 23:44 26.07497 -80.16520 16 ft 3 kts 270°
2026-05-03 23:44 26.07497 -80.16528 16 ft 0 kts 270°
2026-05-03 23:46 26.07497 -80.16547 16 ft 10 kts 270°
2026-05-03 23:46 26.07497 -80.16569 16 ft 0 kts 270°
2026-05-03 23:50 26.07498 -80.16582 16 ft 4 kts 270°
2026-05-03 23:50 26.07501 -80.16614 16 ft 2 kts 283°
2026-05-03 23:50 26.07506 -80.16625 16 ft 1 kts 302°
2026-05-03 23:51 26.07507 -80.16627 17 ft 0 kts 304°
2026-05-03 23:52 26.07536 -80.16642 16 ft 4 kts 355°
2026-05-03 23:52 26.07541 -80.16642 16 ft 0 kts 355°
2026-05-03 23:55 26.07542 -80.16642 16 ft 2 kts 355°
2026-05-03 23:55 26.07583 -80.16643 18 ft 3 kts
2026-05-03 23:55 26.07586 -80.16643 17 ft 0 kts
2026-05-03 23:57 26.07594 -80.16643 17 ft 5 kts
2026-05-03 23:58 26.07631 -80.16642 17 ft 4 kts
2026-05-03 23:58 26.07666 -80.16643 18 ft 5 kts 360°
2026-05-03 23:58 26.07692 -80.16613 18 ft 6 kts 70°
2026-05-03 23:58 26.07694 -80.16435 20 ft 56 kts 91°
2026-05-03 23:59 26.07691 -80.15733 17 ft 122 kts 90°
2026-05-03 23:59 26.07684 -80.14582 62 ft 169 kts 87°
2026-05-03 23:59 26.07707 -80.13307 722 ft 166 kts 85°
2026-05-03 23:59 26.07765 -80.12008 1377 ft 173 kts 86°
2026-05-04 00:00 26.07821 -80.10586 1750 ft 194 kts 86°
2026-05-04 00:00 26.08134 -80.09059 2101 ft 214 kts 65°
2026-05-04 00:00 26.09063 -80.07662 2421 ft 238 kts 39°
2026-05-04 00:00 26.10510 -80.06616 2918 ft 258 kts 25°
2026-05-04 00:01 26.12217 -80.05889 3670 ft 268 kts 15°
2026-05-04 00:01 26.14025 -80.05283 3973 ft 272 kts 10°
2026-05-04 00:01 26.15897 -80.05082 4024 ft 269 kts 355°
2026-05-04 00:01 26.17721 -80.05465 4024 ft 267 kts 339°
2026-05-04 00:02 26.19474 -80.06137 4062 ft 269 kts 338°
2026-05-04 00:02 26.21146 -80.07065 4898 ft 267 kts 322°
2026-05-04 00:02 26.22502 -80.08461 5847 ft 266 kts 306°
2026-05-04 00:02 26.23439 -80.10226 6767 ft 265 kts 290°
2026-05-04 00:03 26.24118 -80.12141 7666 ft 266 kts 289°
2026-05-04 00:03 26.24801 -80.14071 8553 ft 269 kts 289°
2026-05-04 00:03 26.25478 -80.16019 9435 ft 271 kts 285°
2026-05-04 00:03 26.26023 -80.18044 10226 ft 277 kts 284°
2026-05-04 00:04 26.26582 -80.20159 10501 ft 300 kts 284°
2026-05-04 00:04 26.27193 -80.22469 11037 ft 311 kts 284°
2026-05-04 00:04 26.27805 -80.24771 11763 ft 316 kts 284°
2026-05-04 00:04 26.28435 -80.27129 12532 ft 319 kts 284°
2026-05-04 00:05 26.29071 -80.29514 12902 ft 322 kts 284°
2026-05-04 00:05 26.29707 -80.31902 13271 ft 324 kts 284°
2026-05-04 00:05 26.30350 -80.34318 14034 ft 326 kts 284°
2026-05-04 00:05 26.30996 -80.36751 14713 ft 328 kts 283°
2026-05-04 00:06 26.31644 -80.39200 15401 ft 330 kts 283°
2026-05-04 00:06 26.32296 -80.41660 16078 ft 332 kts 283°
2026-05-04 00:06 26.32952 -80.44138 16743 ft 334 kts 283°
2026-05-04 00:06 26.33612 -80.46632 17414 ft 337 kts 283°
2026-05-04 00:07 26.34274 -80.49145 18066 ft 339 kts 282°
2026-05-04 00:07 26.34940 -80.51675 18656 ft 341 kts 282°
2026-05-04 00:07 26.35609 -80.54221 19223 ft 343 kts 282°
2026-05-04 00:07 26.36283 -80.56775 19824 ft 344 kts 282°
2026-05-04 00:08 26.36959 -80.59342 20395 ft 346 kts 282°
2026-05-04 00:08 26.37640 -80.61922 20952 ft 348 kts 281°
2026-05-04 00:08 26.38326 -80.64523 21503 ft 350 kts 281°
2026-05-04 00:08 26.39016 -80.67144 22054 ft 353 kts 281°
2026-05-04 00:09 26.39724 -80.69771 22598 ft 357 kts 284°
2026-05-04 00:09 26.40807 -80.72301 23138 ft 368 kts 295°
2026-05-04 00:09 26.42404 -80.74583 23651 ft 379 kts 305°
2026-05-04 00:09 26.44203 -80.76749 24082 ft 382 kts 305°
2026-05-04 00:10 26.46012 -80.78929 24509 ft 384 kts 305°
2026-05-04 00:10 26.47830 -80.81121 24928 ft 386 kts 305°
2026-05-04 00:10 26.49633 -80.83300 25335 ft 388 kts 304°
2026-05-04 00:10 26.51578 -80.85432 25735 ft 398 kts 312°
2026-05-04 00:11 26.53735 -80.87394 26130 ft 401 kts 312°
2026-05-04 00:11 26.55908 -80.89366 26520 ft 403 kts 312°
2026-05-04 00:11 26.58093 -80.91347 26962 ft 405 kts 312°
2026-05-04 00:11 26.60278 -80.93322 27505 ft 403 kts 312°
2026-05-04 00:12 26.62454 -80.95292 27965 ft 403 kts 312°
2026-05-04 00:12 26.64631 -80.97272 28373 ft 404 kts 312°
2026-05-04 00:12 26.66816 -80.99262 28751 ft 406 kts 312°
2026-05-04 00:12 26.69013 -81.01264 29133 ft 408 kts 311°
2026-05-04 00:13 26.71215 -81.03271 29483 ft 410 kts 311°
2026-05-04 00:13 26.73428 -81.05292 29854 ft 411 kts 311°
2026-05-04 00:13 26.75652 -81.07324 30189 ft 413 kts 311°
2026-05-04 00:13 26.77880 -81.09361 30460 ft 415 kts 311°
2026-05-04 00:14 26.80123 -81.11411 30719 ft 418 kts 311°
2026-05-04 00:14 26.82378 -81.13470 30968 ft 420 kts 311°
2026-05-04 00:14 26.84651 -81.15548 31215 ft 422 kts 311°
2026-05-04 00:14 26.86928 -81.17629 31453 ft 424 kts 311°
2026-05-04 00:15 26.89216 -81.19720 31727 ft 425 kts 311°
2026-05-04 00:15 26.91510 -81.21817 32132 ft 424 kts 310°
2026-05-04 00:15 26.93795 -81.23907 32466 ft 424 kts 310°
2026-05-04 00:15 26.96074 -81.25991 32806 ft 423 kts 310°
2026-05-04 00:16 26.98358 -81.28082 33140 ft 423 kts 309°
2026-05-04 00:16 27.00629 -81.30166 33502 ft 422 kts 309°
2026-05-04 00:16 27.02898 -81.32250 33847 ft 421 kts 309°
2026-05-04 00:16 27.05290 -81.34206 34162 ft 433 kts 317°
2026-05-04 00:17 27.07895 -81.35872 34456 ft 436 kts 318°
2026-05-04 00:17 27.10529 -81.37537 34766 ft 434 kts 318°
2026-05-04 00:17 27.13159 -81.39196 35079 ft 433 kts 318°
2026-05-04 00:17 27.15779 -81.40853 35381 ft 431 kts 318°
2026-05-04 00:18 27.18384 -81.42504 35671 ft 430 kts 318°
2026-05-04 00:18 27.20983 -81.44153 35959 ft 428 kts 318°
2026-05-04 00:18 27.23570 -81.45798 36294 ft 426 kts 317°
2026-05-04 00:18 27.26147 -81.47438 36572 ft 424 kts 317°
2026-05-04 00:19 27.28707 -81.49068 36838 ft 423 kts 317°
2026-05-04 00:19 27.31265 -81.50699 37096 ft 422 kts 317°
2026-05-04 00:19 27.33837 -81.52290 37346 ft 427 kts 321°
2026-05-04 00:19 27.36604 -81.53606 37579 ft 432 kts 324°
2026-05-04 00:20 27.39388 -81.54876 37800 ft 432 kts 324°
2026-05-04 00:20 27.42174 -81.56138 38003 ft 432 kts 324°
2026-05-04 00:20 27.47733 -81.58655 38067 ft 429 kts 324°
2026-05-04 00:21 27.53270 -81.61178 38068 ft 429 kts 324°
2026-05-04 00:21 27.58800 -81.63707 38073 ft 429 kts 324°
2026-05-04 00:22 27.64326 -81.66232 38092 ft 428 kts 323°
2026-05-04 00:22 27.69811 -81.68739 38082 ft 427 kts 323°
2026-05-04 00:23 27.75323 -81.71272 38086 ft 428 kts 323°
2026-05-04 00:23 27.80836 -81.73811 38095 ft 428 kts 323°
2026-05-04 00:24 27.86351 -81.76338 38089 ft 427 kts 323°
2026-05-04 00:24 27.91850 -81.78857 38079 ft 426 kts 322°
2026-05-04 00:25 27.97347 -81.81394 38081 ft 427 kts 322°
2026-05-04 00:25 28.02855 -81.83938 38095 ft 428 kts 322°
2026-05-04 00:26 28.08363 -81.86483 38094 ft 428 kts 322°
2026-05-04 00:26 28.13878 -81.89024 38126 ft 428 kts 322°
2026-05-04 00:27 28.19092 -81.91900 38104 ft 404 kts 310°
2026-05-04 00:27 28.23681 -81.95541 38097 ft 403 kts 310°
2026-05-04 00:28 28.28283 -81.99185 38095 ft 403 kts 310°
2026-05-04 00:28 28.32893 -82.02830 38096 ft 404 kts 310°
2026-05-04 00:29 28.37497 -82.06483 38098 ft 404 kts 310°
2026-05-04 00:29 28.42109 -82.10143 38099 ft 404 kts 310°
2026-05-04 00:30 28.46721 -82.13799 38090 ft 403 kts 309°
2026-05-04 00:30 28.51311 -82.17452 38078 ft 403 kts 309°
2026-05-04 00:31 28.55871 -82.21092 38082 ft 403 kts 309°
2026-05-04 00:31 28.60466 -82.24755 38093 ft 403 kts 309°
2026-05-04 00:32 28.65063 -82.28417 38100 ft 404 kts 309°
2026-05-04 00:32 28.69672 -82.32085 38106 ft 403 kts 309°
2026-05-04 00:33 28.76563 -82.37609 38101 ft 404 kts 309°
2026-05-04 00:34 28.81154 -82.41293 38104 ft 404 kts 309°
2026-05-04 00:34 28.85759 -82.44981 38079 ft 405 kts 309°
2026-05-04 00:35 28.90378 -82.48681 38082 ft 406 kts 309°
2026-05-04 00:35 28.94993 -82.52392 38092 ft 406 kts 309°
2026-05-04 00:36 28.99615 -82.56107 38093 ft 406 kts 309°
2026-05-04 00:36 29.04197 -82.59801 38092 ft 406 kts 309°
2026-05-04 00:37 29.08812 -82.63523 38096 ft 405 kts 310°
2026-05-04 00:37 29.13410 -82.67240 38085 ft 405 kts 310°
2026-05-04 00:38 29.18012 -82.70969 38087 ft 405 kts 310°
2026-05-04 00:38 29.22625 -82.74700 38088 ft 406 kts 310°
2026-05-04 00:39 29.27237 -82.78427 38162 ft 406 kts 310°
2026-05-04 00:39 29.31778 -82.82093 38082 ft 399 kts 310°
2026-05-04 00:40 29.36301 -82.85774 38104 ft 399 kts 310°
2026-05-04 00:40 29.40818 -82.89461 38090 ft 399 kts 310°
2026-05-04 00:41 29.45354 -82.93157 38087 ft 400 kts 310°
2026-05-04 00:41 29.49897 -82.96853 38090 ft 401 kts 310°
2026-05-04 00:41 29.52313 -82.98559 38089 ft 417 kts 320°
2026-05-04 00:42 29.55007 -82.99889 38093 ft 424 kts 323°
2026-05-04 00:42 29.60466 -83.02481 38093 ft 424 kts 323°
2026-05-04 00:43 29.65918 -83.05077 38129 ft 425 kts 323°
2026-05-04 00:43 29.71376 -83.07676 38112 ft 424 kts 323°
2026-05-04 00:44 29.76793 -83.10256 38106 ft 424 kts 323°
2026-05-04 00:44 29.81355 -83.12437 38103 ft 424 kts 323°
2026-05-04 00:45 29.87694 -83.15467 38104 ft 424 kts 323°
2026-05-04 00:45 29.92248 -83.17640 38112 ft 421 kts 323°
2026-05-04 00:46 29.97657 -83.20234 38105 ft 420 kts 324°
2026-05-04 00:46 30.03014 -83.22817 38101 ft 420 kts 324°
2026-05-04 00:47 30.08418 -83.25418 38098 ft 421 kts 324°
2026-05-04 00:47 30.13825 -83.28027 38114 ft 421 kts 324°
2026-05-04 00:48 30.19241 -83.30642 38122 ft 422 kts 324°
2026-05-04 00:48 30.24666 -83.33260 38170 ft 423 kts 324°
2026-05-04 00:49 30.30094 -83.35874 38153 ft 423 kts 324°
2026-05-04 00:49 30.35534 -83.38499 38149 ft 423 kts 324°
2026-05-04 00:50 30.40978 -83.41133 38147 ft 424 kts 324°
2026-05-04 00:50 30.46423 -83.43764 38148 ft 424 kts 324°
2026-05-04 00:51 30.51860 -83.46417 38145 ft 424 kts 324°
2026-05-04 00:51 30.57265 -83.49046 38145 ft 424 kts 324°
2026-05-04 00:52 30.62709 -83.51692 38153 ft 424 kts 324°
2026-05-04 00:52 30.68145 -83.54338 38166 ft 424 kts 325°
2026-05-04 00:53 30.73581 -83.56991 38158 ft 423 kts 324°
2026-05-04 00:53 30.79010 -83.59646 38157 ft 423 kts 325°
2026-05-04 00:54 30.84437 -83.62291 38126 ft 422 kts 325°
2026-05-04 00:54 30.89847 -83.64936 38122 ft 422 kts 325°
2026-05-04 00:55 30.95276 -83.67582 38124 ft 423 kts 325°
2026-05-04 00:55 31.00700 -83.70247 38121 ft 423 kts 325°
2026-05-04 00:56 31.06128 -83.72925 38130 ft 424 kts 325°
2026-05-04 00:56 31.11567 -83.75597 38163 ft 424 kts 326°
2026-05-04 00:57 31.17015 -83.78278 38154 ft 424 kts 326°
2026-05-04 00:57 31.22418 -83.80938 38148 ft 424 kts 326°
2026-05-04 00:58 31.27889 -83.83636 38134 ft 424 kts 326°
2026-05-04 00:58 31.33291 -83.86317 38131 ft 424 kts 326°
2026-05-04 00:59 31.38725 -83.89012 38161 ft 425 kts 326°
2026-05-04 00:59 31.44161 -83.91696 38140 ft 424 kts 327°
2026-05-04 01:00 31.49612 -83.94393 38120 ft 425 kts 327°
2026-05-04 01:00 31.55364 -83.96435 38117 ft 441 kts 339°
2026-05-04 01:01 31.61402 -83.97769 38118 ft 442 kts 340°
2026-05-04 01:01 31.67450 -83.99094 38139 ft 442 kts 340°
2026-05-04 01:02 31.73502 -84.00432 38130 ft 443 kts 340°
2026-05-04 01:02 31.79509 -84.01774 38125 ft 443 kts 340°
2026-05-04 01:03 31.85563 -84.03132 38123 ft 443 kts 340°
2026-05-04 01:03 31.91615 -84.04485 38117 ft 443 kts 340°
2026-05-04 01:04 31.97671 -84.05834 38120 ft 442 kts 341°
2026-05-04 01:04 32.03718 -84.07182 38112 ft 442 kts 341°
2026-05-04 01:05 32.09764 -84.08542 38108 ft 442 kts 340°
2026-05-04 01:05 32.15769 -84.09896 38115 ft 442 kts 340°
2026-05-04 01:06 32.21816 -84.11251 38155 ft 442 kts 341°
2026-05-04 01:06 32.27844 -84.12604 38116 ft 440 kts 341°
2026-05-04 01:07 32.33850 -84.13961 38114 ft 439 kts 341°
2026-05-04 01:07 32.39864 -84.15327 38112 ft 439 kts 341°
2026-05-04 01:08 32.45870 -84.16687 38114 ft 439 kts 341°
2026-05-04 01:08 32.51879 -84.18039 38133 ft 440 kts 341°
2026-05-04 01:09 32.57851 -84.19384 38124 ft 439 kts 341°
2026-05-04 01:09 32.63858 -84.20752 38125 ft 439 kts 341°
2026-05-04 01:10 32.69860 -84.22123 38132 ft 439 kts 341°
2026-05-04 01:10 32.75861 -84.23494 38177 ft 439 kts 342°
2026-05-04 01:11 32.81859 -84.24854 38166 ft 438 kts 342°
2026-05-04 01:11 32.87843 -84.26211 38169 ft 438 kts 342°
2026-05-04 01:12 32.93825 -84.27579 38165 ft 438 kts 342°
2026-05-04 01:12 32.99772 -84.28940 38164 ft 437 kts 342°
2026-05-04 01:13 33.05772 -84.30317 38146 ft 436 kts 343°
2026-05-04 01:13 33.11664 -84.31668 38149 ft 433 kts 343°
2026-05-04 01:14 33.17583 -84.33027 38152 ft 433 kts 343°
2026-05-04 01:14 33.23491 -84.34392 38161 ft 432 kts 343°
2026-05-04 01:15 33.29395 -84.35756 38169 ft 432 kts 343°
2026-05-04 01:15 33.35298 -84.37113 38168 ft 432 kts 343°
2026-05-04 01:16 33.41201 -84.38474 38104 ft 434 kts 343°
2026-05-04 01:16 33.44196 -84.39171 37825 ft 441 kts 343°
2026-05-04 01:16 33.47214 -84.39871 37554 ft 442 kts 343°
2026-05-04 01:16 33.50226 -84.40565 37293 ft 440 kts 343°
2026-05-04 01:17 33.53227 -84.41254 37030 ft 437 kts 344°
2026-05-04 01:17 33.56195 -84.41937 36654 ft 432 kts 344°
2026-05-04 01:17 33.59092 -84.42608 36131 ft 428 kts 345°
2026-05-04 01:17 33.61984 -84.43317 35606 ft 422 kts 341°
2026-05-04 01:18 33.64724 -84.44460 35088 ft 414 kts 333°
2026-05-04 01:18 33.67340 -84.45873 34559 ft 410 kts 333°
2026-05-04 01:18 33.69929 -84.47267 34027 ft 408 kts 333°
2026-05-04 01:18 33.72511 -84.48657 33473 ft 404 kts 333°
2026-05-04 01:19 33.75065 -84.50029 32959 ft 399 kts 334°
2026-05-04 01:19 33.77586 -84.51385 32454 ft 395 kts 334°
2026-05-04 01:19 33.80081 -84.52730 31953 ft 391 kts 334°
2026-05-04 01:19 33.82553 -84.54063 31465 ft 388 kts 334°
2026-05-04 01:20 33.85005 -84.55388 30980 ft 385 kts 333°
2026-05-04 01:20 33.87436 -84.56703 30507 ft 381 kts 333°
2026-05-04 01:20 33.89846 -84.58006 30018 ft 378 kts 333°
2026-05-04 01:20 33.92234 -84.59294 29551 ft 374 kts 333°
2026-05-04 01:21 33.94590 -84.60565 29135 ft 369 kts 333°
2026-05-04 01:21 33.96916 -84.61824 28714 ft 364 kts 333°
2026-05-04 01:21 33.99212 -84.63067 28293 ft 360 kts 333°
2026-05-04 01:21 34.01485 -84.64298 27873 ft 356 kts 333°
2026-05-04 01:22 34.03729 -84.65516 27445 ft 353 kts 333°
2026-05-04 01:22 34.05966 -84.66730 27025 ft 350 kts 333°
2026-05-04 01:22 34.08175 -84.67927 26583 ft 347 kts 333°
2026-05-04 01:22 34.10370 -84.69121 26165 ft 344 kts 332°
2026-05-04 01:23 34.12543 -84.70306 25698 ft 343 kts 332°
2026-05-04 01:23 34.14713 -84.71488 25247 ft 341 kts 332°
2026-05-04 01:23 34.16847 -84.72649 24799 ft 340 kts 332°
2026-05-04 01:23 34.19001 -84.73818 24324 ft 339 kts 332°
2026-05-04 01:24 34.21147 -84.74987 23860 ft 338 kts 332°
2026-05-04 01:24 34.23293 -84.76158 23333 ft 338 kts 332°
2026-05-04 01:24 34.25453 -84.77339 22859 ft 335 kts 332°
2026-05-04 01:24 34.27574 -84.78496 22402 ft 333 kts 333°
2026-05-04 01:25 34.29679 -84.79642 21954 ft 331 kts 333°
2026-05-04 01:25 34.31773 -84.80781 21516 ft 329 kts 333°
2026-05-04 01:25 34.33820 -84.81897 21082 ft 327 kts 333°
2026-05-04 01:25 34.35891 -84.83026 20646 ft 326 kts 333°
2026-05-04 01:26 34.37950 -84.84153 20222 ft 325 kts 333°
2026-05-04 01:26 34.40004 -84.85280 19779 ft 323 kts 333°
2026-05-04 01:26 34.42049 -84.86405 19356 ft 322 kts 333°
2026-05-04 01:26 34.44090 -84.87528 18933 ft 322 kts 333°
2026-05-04 01:27 34.46126 -84.88647 18535 ft 321 kts 334°
2026-05-04 01:27 34.48160 -84.89765 18060 ft 320 kts 334°
2026-05-04 01:27 34.50183 -84.90873 17647 ft 318 kts 334°
2026-05-04 01:27 34.52195 -84.91973 17231 ft 316 kts 334°
2026-05-04 01:28 34.54186 -84.93065 16842 ft 314 kts 334°
2026-05-04 01:28 34.56168 -84.94154 16439 ft 312 kts 334°
2026-05-04 01:28 34.58154 -84.95246 15955 ft 313 kts 334°
2026-05-04 01:28 34.60131 -84.96334 15567 ft 312 kts 334°
2026-05-04 01:29 34.62078 -84.97407 15170 ft 311 kts 334°
2026-05-04 01:29 34.64066 -84.98503 14788 ft 309 kts 334°
2026-05-04 01:29 34.65996 -84.99567 14396 ft 308 kts 334°
2026-05-04 01:29 34.67970 -85.00652 14014 ft 307 kts 335°
2026-05-04 01:30 34.69887 -85.01708 13596 ft 305 kts 334°
2026-05-04 01:30 34.71813 -85.02771 13202 ft 303 kts 335°
2026-05-04 01:30 34.73725 -85.03830 12815 ft 301 kts 335°
2026-05-04 01:30 34.75621 -85.04883 12408 ft 299 kts 335°
2026-05-04 01:31 34.77510 -85.05927 12030 ft 297 kts 335°
2026-05-04 01:31 34.79384 -85.06960 11640 ft 295 kts 335°
2026-05-04 01:31 34.81248 -85.07992 11244 ft 293 kts 335°
2026-05-04 01:31 34.83100 -85.09017 10848 ft 292 kts 335°
2026-05-04 01:32 34.84946 -85.10041 10437 ft 291 kts 335°
2026-05-04 01:32 34.86785 -85.11060 10037 ft 290 kts 335°
2026-05-04 01:32 34.88604 -85.12066 9778 ft 283 kts 335°
2026-05-04 01:32 34.90381 -85.13049 9428 ft 279 kts 335°
2026-05-04 01:33 34.92149 -85.14030 9000 ft 279 kts 334°
2026-05-04 01:33 34.93910 -85.15009 8559 ft 276 kts 335°
2026-05-04 01:33 34.95729 -85.15620 7959 ft 271 kts 357°
2026-05-04 01:33 34.97547 -85.15189 7322 ft 273 kts 20°
2026-05-04 01:34 34.99291 -85.14185 7062 ft 276 kts 24°
2026-05-04 01:34 35.01011 -85.13124 7005 ft 278 kts 25°
2026-05-04 01:34 35.02740 -85.12051 7008 ft 279 kts 25°
2026-05-04 01:34 35.04433 -85.10996 6670 ft 274 kts 25°
2026-05-04 01:35 35.06131 -85.09937 5926 ft 274 kts 25°
2026-05-04 01:35 35.07825 -85.08893 5220 ft 272 kts 25°
2026-05-04 01:35 35.09510 -85.07871 4511 ft 269 kts 25°
2026-05-04 01:35 35.10640 -85.07192 4019 ft 268 kts 24°
2026-05-04 01:36 35.12843 -85.05867 3189 ft 264 kts 24°
2026-05-04 01:36 35.14449 -85.04896 3022 ft 247 kts 25°
2026-05-04 01:36 35.15935 -85.04101 2993 ft 222 kts 12°
2026-05-04 01:36 35.16962 -85.03942 2995 ft 218 kts 355°
2026-05-04 01:37 35.18397 -85.04388 2997 ft 212 kts 324°
2026-05-04 01:37 35.19349 -85.05695 2999 ft 206 kts 292°
2026-05-04 01:37 35.19849 -85.07332 2999 ft 206 kts 285°
2026-05-04 01:37 35.20269 -85.09006 2999 ft 206 kts 285°
2026-05-04 01:38 35.20678 -85.10694 2999 ft 207 kts 284°
2026-05-04 01:38 35.20898 -85.12391 2999 ft 195 kts 260°
2026-05-04 01:38 35.20335 -85.13823 3002 ft 188 kts 224°
2026-05-04 01:38 35.19200 -85.14574 3008 ft 188 kts 198°
2026-05-04 01:39 35.17939 -85.15028 3010 ft 188 kts 198°
2026-05-04 01:39 35.16695 -85.15478 3033 ft 180 kts 199°
2026-05-04 01:39 35.15541 -85.15897 2954 ft 168 kts 199°
2026-05-04 01:39 35.14439 -85.16300 2764 ft 162 kts 200°
2026-05-04 01:40 35.13387 -85.16685 2559 ft 154 kts 199°
2026-05-04 01:40 35.12392 -85.17049 2373 ft 146 kts 199°
2026-05-04 01:40 35.11447 -85.17395 2210 ft 139 kts 200°
2026-05-04 01:40 35.10525 -85.17732 2017 ft 137 kts 200°
2026-05-04 01:41 35.09614 -85.18066 1823 ft 137 kts 199°
2026-05-04 01:41 35.08719 -85.18393 1643 ft 136 kts 199°
2026-05-04 01:41 35.07820 -85.18721 1456 ft 134 kts 197°
2026-05-04 01:41 35.06924 -85.19049 1276 ft 134 kts 197°
2026-05-04 01:42 35.06034 -85.19374 1109 ft 132 kts 197°
2026-05-04 01:42 35.05150 -85.19698 939 ft 132 kts 197°
2026-05-04 01:42 35.04271 -85.20020 741 ft 131 kts 196°
2026-05-04 01:42 35.03466 -85.20313 685 ft 97 kts 197°
2026-05-04 01:43 35.02980 -85.20489 692 ft 50 kts 197°
2026-05-04 01:43 35.02725 -85.20582 687 ft 36 kts 196°
2026-05-04 01:43 35.02586 -85.20598 690 ft 14 kts 133°
2026-05-04 01:43 35.02581 -85.20502 687 ft 10 kts 51°
2026-05-04 01:44 35.02641 -85.20474 688 ft 10 kts 17°
2026-05-04 01:44 35.02715 -85.20448 688 ft 12 kts 16°
2026-05-04 01:44 35.02803 -85.20415 689 ft 14 kts 17°
2026-05-04 01:44 35.02904 -85.20378 688 ft 16 kts 17°
2026-05-04 01:45 35.03019 -85.20337 688 ft 18 kts 17°
2026-05-04 01:45 35.03145 -85.20290 685 ft 19 kts 16°
2026-05-04 01:45 35.03266 -85.20121 689 ft 14 kts 54°
2026-05-04 01:46 35.03328 -85.20018 687 ft 16 kts 55°
2026-05-04 01:46 35.03398 -85.19897 685 ft 16 kts 54°
2026-05-04 01:46 35.03466 -85.19817 687 ft 13 kts 360°
2026-05-04 01:46 35.03551 -85.19879 688 ft 14 kts 326°
2026-05-04 01:47 35.03634 -85.19948 690 ft 15 kts 325°
2026-05-04 01:47 35.03729 -85.19954 691 ft 15 kts 16°
2026-05-04 01:47 35.03818 -85.19922 687 ft 13 kts 17°
2026-05-04 01:47 35.03849 -85.19895 687 ft 3 kts 107°
2026-05-04 01:48 35.03834 -85.19869 690 ft 5 kts 133°
2026-05-04 01:48 35.03818 -85.19848 691 ft 2 kts 133°
2026-05-04 01:48 35.03812 -85.19840 691 ft 0 kts 133°
2026-05-04 01:48 35.03811 -85.19840 691 ft 0 kts 134°